Regional Weather Roundup
Issued by NWS Grand Forks, ND

Home | Current Version | Previous Version | Graphics & Text | Print | Product List | Glossary On
Versions: 1 2 3 4 5 6 7 8 9 10 11 12 13 14 15 16 17 18 19 20 21 22 23 24 25 26 27 28 29 30 31 32 33 34 35 36 37 38 39 40 41 42 43 44 45 46 47 48 49 50
000
ASUS43 KFGF 271931
RWRFGF
PRAIRIE TO PINES  WEATHER ROUNDUP
NATIONAL WEATHER SERVICE EASTERN NORTH DAKOTA/GRAND FORKS ND
100 PM CST FRI FEB 27 2015

 **SATELLITE DATA USED TO AUGMENT SKY COVER AT AUTOMATED STATIONS**
 *****  WEATHER ACROSS EASTERN NORTH DAKOTA  *****

CITY           SKY/WX    TMP DP  RH WIND       PRES   REMARKS
GRAND FORKS    NOT AVBL
GRAND FRKS AFB NOT AVBL
GRAND FRKS NWS   N/A     19 N/A N/A SW12        N/A  WCI   7
DEVILS LAKE    SUNNY     10   0  61 SW12      30.33F WCI  -4
WAHPETON ARPT  FAIR      14   0  52 W9        30.48F WCI   2
$$

 ***** WEATHER ACROSS CENTRAL AND WESTERN NORTH DAKOTA  *****

CITY           SKY/WX    TMP DP  RH WIND       PRES   REMARKS
BISMARCK       NOT AVBL
MINOT          NOT AVBL
JAMESTOWN      NOT AVBL
MINOT AFB      SUNNY     12   2  62 S9        30.25F WCI   0
GARRISON         N/A     16   2  54 S15G21    30.24F WCI   1
WILLISTON      SUNNY     18   3  52 SE10      30.16F WCI   6
DICKINSON      NOT AVBL
HETTINGER      NOT AVBL
$$

 *****  OTHER AIRPORT OBSERVATIONS IN OUR AREA  *****

CITY           SKY/WX    TMP DP  RH WIND       PRES   REMARKS
WALHALLA         N/A     12   0  57 W13G18    30.36F WCI  -3
GRAFTON AIRPOR NOT AVBL
VALLEY CITY AR FAIR       9   1  72 SW10      30.39F WCI  -6
CANDO          FAIR      14   1  57 SW16      30.31F WCI  -2
CAVALIER APRT  FAIR      14   0  52 W15       30.37F WCI  -1
GWINNER        CLEAR     14   1  57 SW14      30.44F WCI  -1
SHEYENNE NWR     N/A     15  -3  44 SW8       29.95  WCI   4
ROLLA          FAIR       7   0  72 SW13      30.26F WCI  -9
 ***** THE ABOVE OBSERVATIONS ARE NON NWS ARE NOT QUALITY
       CONTROLLED AND MAY MIS-REPORT RAIN FOR SNOW...
$$

  *****  WEATHER ACROSS NORTHERN MINNESOTA  *****

CITY           SKY/WX    TMP DP  RH WIND       PRES   REMARKS
FLAG ISLAND    SUNNY     10  -2  56 SE6       30.30S WCI   1
WARROAD        SUNNY     10  -2  56 SW13      30.34F WCI  -5
ROSEAU         SUNNY     10   0  61 SW12      30.35F WCI  -4
HALLOCK        SUNNY     10   1  67 S12       30.38F WCI  -4
THF RVR FALLS  SUNNY      7   0  72 S9        30.40F WCI  -7
BAUDETTE       NOT AVBL
WASKISH        SUNNY     12  -2  52 SW10      30.37F WCI  -1
CROOKSTON      SUNNY     12   3  67 SW10      30.43F WCI  -1
STEPHEN NDAWN    N/A     10   1  67 SW12        N/A  WCI  -4
GREENBUSH NDAW   N/A     10  -2  56 MISG        N/A
$$
  *****  WEATHER ACROSS CENTRAL AND WEST MINNESOTA  *****

CITY           SKY/WX    TMP DP  RH WIND       PRES   REMARKS
FOSSTON        SUNNY     10   1  67 S12       30.41F WCI  -4
BEMIDJI        SUNNY     13  -6  42 W9        30.38F WCI   1
PARK RAPIDS    NOT AVBL
ELBOW LAKE     FAIR       8   1  70 W5        30.47F WCI   0
WADENA         SUNNY     10  -2  56 SW12      30.42F WCI  -4
DETROIT LAKES  SUNNY     12   0  57 SW7       30.43F WCI   2
MOORHEAD       FAIR      16   1  53 SW9       30.46F WCI   4
FERGUS FALLS   SUNNY     12  -2  52 SW8       30.50F WCI   1
MORRIS MN      SUNNY     14   1  57 W6        30.48F WCI   5
STAPLES        SUNNY     16  -6  38 W7        30.43F WCI   6
$$
  *****  WEATHER ELSEWHERE ACROSS MINNESOTA  *****

CITY           SKY/WX    TMP DP  RH WIND       PRES   REMARKS
DULUTH         NOT AVBL
INTRNTL FALLS  NOT AVBL
ELY            SUNNY     16 -11  29 W12G17    30.32F WCI   3
CLOQUET        SUNNY     16 -11  29 W10G16    30.39F WCI   3
WHEATON        SUNNY     10  -2  56 SW3       30.50F
BRAINERD       NOT AVBL
HIBBING        NOT AVBL
ALEXANDRIA     NOT AVBL
SAINT CLOUD    NOT AVBL
MINNEAPOLIS    NOT AVBL
$$

  *****  WEATHER ACROSS SOUTH DAKOTA  *****

CITY           SKY/WX    TMP DP  RH WIND       PRES   REMARKS
SIOUX FALLS    NOT AVBL
BROOKINGS      NOT AVBL
WATERTOWN      NOT AVBL
HURON          NOT AVBL
SISSETON       NOT AVBL
ABERDEEN       NOT AVBL
MITCHELL       NOT AVBL
PIERRE         NOT AVBL
MOBRIDGE       NOT AVBL
RAPID CITY     NOT AVBL
$$

  *****  SOME WEATHER IN NEARBY STATES *****

CITY           SKY/WX    TMP DP  RH WIND       PRES   REMARKS
GLASGOW MT     NOT AVBL
GREAT FALLS MT LGT SNOW  16  10  79 NW10      30.01S WCI   3
CHEYENNE WY    NOT AVBL
SCOTTSBLUFF NE NOT AVBL
OMAHA NE       NOT AVBL
DES MOINES IA  NOT AVBL
DAVENPORT IA   NOT AVBL
CHICAGO IL     SUNNY     13  -5  44 SW8       30.59F WCI   2
EAU CLAIRE WI  NOT AVBL
LA CROSSE WI   NOT AVBL
$$

  *****  SOME NATIONAL WEATHER *****

CITY           SKY/WX    TMP DP  RH WIND       PRES   REMARKS
LA GUARDIA NY  MOSUNNY   28   7  41 NW6       30.38F WCI  22
RALEIGH NC     MOSUNNY   42  23  46 VRB5      30.38F
ATLANTA GA     NOT AVBL
NEW ORLEANS LA NOT AVBL
OKLAHOMA CITY  NOT AVBL
ALBUQUERQUE NM CLOUDY    27  20  75 E10       29.99S WCI  17
SALT LAKE CITY NOT AVBL
LOS ANGELES CA NOT AVBL
BOISE ID       NOT AVBL
SEATTLE WA     NOT AVBL
$$

*** WEATHER ACROSS MANITOBA...SASKATCHEWAN AND ONTARIO ***
                ***ONTARIO***

CITY           SKY/WX    TMP DP  RH WIND       PRES   REMARKS
GERALDTON      PTSUNNY   14  -9  34 W17       30.17F WCI  -3
THUNDER BAY    MOSUNNY   18  -8  32 W15       30.32F WCI   3
SIOUX LOOKOUT  PTSUNNY   14  -8  37 W7        30.22F WCI   4
TORONTO        MOSUNNY   14   0  52 W13G20    30.48F WCI   0
BIG TROUT LK   SUNNY     12  -4  48 W14G22    29.92F WCI  -3
PICKLE LAKE    PTSUNNY   16  -8  35 W18G31    30.06F WCI  -1
DRYDEN         SUNNY     14  -8  37 W13G20    30.23F WCI   0
KENORA         MOSUNNY    9  -8  47 SW10G17   30.27F WCI  -6
$$
                *** MANITOBA***

CITY           SKY/WX    TMP DP  RH WIND       PRES   REMARKS
BRANDON        PTSUNNY    3  -6  66 W6        30.29F WCI  -8
DAUPHIN        SUNNY     12   1  62 W10       30.23F WCI  -1
ISLAND LAKE    PTSUNNY   10  -4  52 W15G21    30.01F WCI  -6
PILOT MOUND      N/A      5  -2  72 SW14        N/A  WCI -12
THE PAS        MOSUNNY    9   0  66 W9        30.12F WCI  -5
THOMPSON       FLURRIES  12   0  57 W15       30.00S WCI  -4
WINNIPEG       PTSUNNY   12  -2  52 SW14      30.34F WCI  -3
LYNN LAKE      CLOUDY     9   1  72 NW12G18   30.02R WCI  -6
CHURCHILL      CRYSTALS   1  -4  78 NW14      29.94R WCI -17
GILLAM         CLOUDY     9  -2  61 W9        29.95S WCI  -5
$$
                ***SASKATCHEWAN***

CITY           SKY/WX    TMP DP  RH WIND       PRES   REMARKS
ESTEVAN        PTSUNNY   12   0  57 S6        30.18F WCI   3
KINDERSLEY     CLOUDY    10   1  67 N6        30.10  WCI   1
LLOYDMINSTER   LGT SNOW   5   0  78 NW8       30.14R WCI  -8
PRINCE ALBERT  CLOUDY     1  -8  66 W5        30.16S WCI  -8
REGINA         CLOUDY     1  -8  66 SE10      30.14F WCI -14
YORKTON        SUNNY      7  -6  56 SW12      30.17F WCI  -9
N. BATTLEFORD  SUNNY     -2 -11  65 NW6       30.18R WCI -14
LA RONGE       MOSUNNY   12   1  62 W7        30.16S WCI   2
SASKATOON      PTSUNNY   -2 -11  65 W3        30.16S
SWIFT CURRENT  SUNNY     10   0  61 N9        30.04R WCI  -2
$$
NOTE: THESE ARE AUTOMATED STATIONS WITH LIMITED QUALITY CONTROL
      "FAIR" INDICATES FEW OR NO CLOUDS BELOW 12,000 FEET WITH NO
      SIGNIFICANT WEATHER AND/OR OBSTRUCTIONS TO VISIBILITY.
      SKY/WX - SKY CONDITION AND SIGNIFICANT WEATHER.
      TMP - AIR TEMPERATURE.    DP   - DEWPOINT TEMPERATURE.
      RH  - RELATIVE HUMIDITY.  PRES - PRESSURE.
      HX  - HEAT INDEX.         WCI  - WIND CHILL INDEX.
$



USA.gov is the U.S. government's official web portal to all federal, state and local government web resources and services.